Regional Weather Roundup
Issued by NWS New Orleans/Baton Rouge, LA

Home | Current Version | Previous Version | Text Only | Print | Product List | Glossary On
Versions: 1 2 3 4 5 6 7 8 9 10 11 12 13 14 15 16 17 18 19 20 21 22 23 24 25 26 27 28 29 30 31 32 33 34 35 36 37 38 39 40 41 42 43 44 45 46 47 48 49 50
000
ASUS44 KLIX 280205
RWRLIX
NEW ORLEANS REGIONAL WEATHER ROUNDUP
NATIONAL WEATHER SERVICE NEW ORLEANS LA
800 PM CST TUE JAN 27 2015

NOTE: "FAIR" INDICATES FEW OR NO CLOUDS BELOW 12,000 FEET WITH NO
      SIGNIFICANT WEATHER AND/OR OBSTRUCTIONS TO VISIBILITY.
      SKY/WX - SKY CONDITION AND SIGNIFICANT WEATHER.
      TMP - AIR TEMPERATURE.     DP    - DEWPOINT TEMPERATURE.
      RH  - RELATIVE HUMIDITY.   PRES  - PRESSURE.
      HI  - HEAT INDEX.          WCI   - WIND CHILL INDEX.

*  THESE STATIONS ARE NOT NWS OR FAA STATIONS AND ARE NOT UNDER
   NWS QUALITY CONTROL.

LAZ038-040-048-061>063-065>067-069-280300-
SOUTHEAST LOUISIANA

CITY           SKY/WX    TMP DP  RH WIND       PRES   REMARKS
N.O. AUDUBON     N/A     60  42  51 MISG        N/A
N.O. INTL ARPT CLEAR     56  42  59 CALM      30.13R
N.O. LAKEFRONT CLEAR     59  48  67 NW8       30.13R
N.O. DOWNTOWN*   N/A    N/A N/A N/A N3        30.13R
SLIDELL        CLEAR     50  43  77 CALM      30.12R
BATON ROUGE    CLEAR     54  36  50 NW3       30.14R
BOOTHVILLE     CLEAR     57  55  93 SW5       30.13R
BELLE CHASSE   CLEAR     52  39  61 SW5       30.13R
BOGALUSA*        N/A     49  39  69 CALM      30.14R
GALLIANO*      CLEAR     57  51  80 MISG      30.14S
NEW ROADS*       N/A     57  35  44 N3        30.14R
GONZALES*        N/A     56  41  56 CALM      30.13R
HAMMOND*       CLEAR     50  41  71 CALM      30.15R
HOUMA*         CLEAR     56  48  74 SW6       30.14R
PORT FOURCHON* CLEAR     59  54  82 W7        30.18R

$$

MSZ070-080>082-280300-
SOUTHERN MISSISSIPPI

CITY           SKY/WX    TMP DP  RH WIND       PRES   REMARKS
MCCOMB         CLEAR     54  34  46 N6        30.14R
GULFPORT       CLEAR     51  40  65 NW3       30.10R
BILOXI         CLEAR     56  40  53 CALM      30.10R
PASCAGOULA     CLEAR     45  42  89 CALM      30.11R
STENNIS ARPT*  CLEAR     46  39  76 CALM      30.12R

$$

COASTAL OBSERVATIONS
LAKE AND NEARSHORE STATIONS

STATION/POSITION TIME  TEMP    WIND        PRES    WAVE
                       AIR SEA DIR/SP/G            HT/PER
                 (UTC) (F)     (DEG/KT/KT) (MB)    (FT/S)
PASCAGOULA       0200   55     270/  4/  5 1018.7
WAVELAND YACHT   0200   63     290/  4/  5 1018.6
GRAND ISLE       0200   61 63  260/  7/  8 1020.8
SOUTHWEST PASS   0200   59 47  250/ 10/ 10 1020.5
NEW CANAL        0200   63 54  290/  2/  4 1020.3
SHELL BEACH      0200   63 56  270/  8/  8 1019.7

OFFSHORE STATIONS

STATION/POSITION TIME  TEMP    WIND        PRES    WAVE
                       AIR SEA DIR/SP/G            HT/PER
                 (UTC) (F)     (DEG/KT/KT) (MB)    (FT/S)
64 S DAUPHIN ISL 0149   66 66  290/ 16/ 17 1019.9    3/ 6

$$



USA.gov is the U.S. government's official web portal to all federal, state and local government web resources and services.